Tracking 19575 objects as of 18-Feb-2019
HD Live streaming from Space Station
objects crossing your sky now

LEMUR 2 ANGELA

Track LEMUR 2 ANGELA now!
10-day predictions
LEMUR 2 ANGELA is classified as:


NORAD ID: 42752
Int'l Code: 2017-019B
Perigee: 476.1 km
Apogee: 490.1 km
Inclination: 51.6 °
Period: 94.1 minutes
Semi major axis: 6854 km
RCS: Unknown
Launch date: April 18, 2017
Source: United States (US)
Launch site: AIR FORCE EASTERN TEST RANGE (AFETR)
aabbcc
Your satellite tracking list
Your tracking list is empty




NASA's NSSDC Master Catalog

Two Line Element Set (TLE):
1 42752U 17019B   19049.32264619  .00001120  00000-0  50423-4 0  9996
2 42752  51.6424 348.1461 0010218  12.1975 347.9251 15.29946503 94781
Source of the keplerian elements: AFSPC